Temp
13 12 13 13 13 13 14 14 14 14 14 14 14 15 15 15 16 16 16 16 16 16 16 16 16 15 15 15 13 13 13 14 14 15 15 15 15 14 12 13 13 13 12 13 13 14 12
13 13 13 13 13 13 13 13 13 13 14 14 14 15 15 15 16 16 16 16 16 16 16 16 15 15 15 13 12 13 13 14 14 14 14 15 14 14 13 12 12 12 12 12 12 12 12
13 13 12 13 13 13 13 13 13 13 14 14 14 15 15 15 15 16 16 16 16 16 15 15 15 15 14 12 12 12 13 13 13 14 14 14 14 14 13 12 12 12 13 12 11 12 10
13 13 12 12 13 13 13 13 13 13 14 14 14 14 15 15 15 16 16 15 15 15 15 14 14 14 12 12 12 12 12 12 13 13 13 13 14 14 13 12 11 10 9 12 12 12 11
12 12 12 12 12 12 13 13 13 13 14 14 14 14 15 15 15 15 15 15 14 14 14 14 14 14 11 12 12 12 12 13 13 13 13 13 13 12 12 10 10 8 12 12 12 11 10
12 12 12 12 12 12 12 13 13 13 14 14 14 14 15 15 15 15 15 15 14 14 14 14 13 13 12 11 11 11 12 12 13 12 12 13 12 8 7 9 12 11 11 10 11 11 9
12 12 12 12 12 12 12 12 13 13 13 13 14 14 14 15 15 15 15 14 14 13 14 11 11 11 11 11 11 11 11 11 12 12 9 10 9 10 10 10 10 9 10 11 10 10 9
11 11 12 12 12 12 12 12 13 13 13 13 13 14 14 14 14 14 14 14 13 12 10 10 11 11 11 11 11 11 11 11 11 9 9 8 10 10 9 9 10 10 10 9 9 9 9
11 11 11 12 12 12 12 12 12 13 13 13 13 13 14 14 14 14 13 13 12 11 11 10 10 11 11 11 10 10 11 11 10 10 9 9 10 10 10 10 10 9 9 9 10 8 5
11 11 11 11 11 12 12 12 12 12 13 13 13 13 13 14 14 13 13 12 11 11 7 10 10 10 10 10 10 10 10 10 9 10 8 9 9 9 9 10 8 10 8 9 9 8 8
10 11 11 11 11 11 11 12 12 12 12 13 13 13 13 14 13 13 12 12 11 11 8 10 10 10 10 10 10 10 10 10 9 9 9 10 9 9 9 9 8 9 8 8 8 7 6
10 10 11 11 11 11 11 11 12 12 12 12 12 13 13 13 13 13 12 12 11 8 8 10 10 9 10 10 9 9 10 10 9 8 7 8 8 8 8 7 8 8 7 5 3 4 5
10 10 10 10 11 11 11 11 11 11 12 12 12 12 12 12 12 12 12 12 8 7 10 10 9 9 9 9 8 6 6 4 8 9 8 8 7 7 8 8 7 7 7 7 6 5 7
10 10 10 10 10 11 11 11 11 11 11 11 11 12 12 12 12 12 12 8 12 11 10 8 8 8 9 8 7 6 6 5 3 4 4 6 7 7 6 7 8 7 7 7 8 6 7
10 10 10 9 10 10 10 11 11 11 11 11 11 11 11 11 11 12 12 6 8 9 8 8 8 9 9 8 8 7 6 5 3 3 7 6 7 5 5 5 6 6 6 6 7 4 2
9 9 9 9 9 9 10 10 11 11 11 11 11 11 10 10 10 11 7 8 8 6 7 7 10 8 9 7 7 7 6 4 3 2 2 4 6 4 5 5 4 6 5 5 5 5 5
9 9 9 9 9 9 9 9 10 10 10 10 10 10 9 9 10 10 6 6 6 5 6 7 8 8 7 7 6 6 6 3 2 2 2 2 3 5 4 4 4 4 4 4 4 4 5
9 9 9 9 9 9 9 9 9 9 10 10 10 8 9 8 8 2 4 5 5 5 5 5 5 5 5 5 5 4 5 3 2 2 3 2 1 2 4 0 0 1 2 3 4 3 -1
9 9 9 9 8 8 8 8 9 8 9 9 10 9 8 8 6 4 3 4 4 4 4 4 5 4 4 5 6 3 3 1 2 2 1 1 1 1 4 1 1 1 0 -1 -2 -2 -2
8 9 9 8 8 8 8 9 8 7 7 8 9 7 6 6 5 4 4 5 4 3 3 3 3 3 4 4 3 4 2 0 1 2 2 2 0 3 4 2 -0 -0 -1 -1 -1 -3 -0
8 8 8 8 8 8 8 9 8 8 7 8 8 7 6 6 4 3 4 4 4 4 2 3 3 3 3 3 3 2 0 -0 0 1 0 1 -0 -1 -1 -1 -1 -1 -0 -1 -2 -1 -2
7 7 8 8 8 8 7 7 7 7 7 7 8 6 4 3 3 3 3 3 3 2 2 2 2 2 2 3 3 2 0 -0 1 -1 -0 -2 -0 -3 -3 -2 -2 -2 -2 -2 -1 -1 -3
7 7 7 8 8 7 7 7 7 7 5 6 7 6 7 2 1 2 2 3 3 2 0 1 1 1 1 1 1 -0 -0 -1 -0 -2 -2 -2 -2 -3 -3 -4 -3 -3 -6 -4 -5 -7 -7
6 7 7 7 7 7 7 6 6 6 6 6 6 5 4 3 2 3 2 2 1 1 1 -1 1 1 -1 -0 -0 -1 -1 -2 -2 -3 -2 -3 -3 -3 -4 -4 -5 -6 -8 -8 -8 -9 -12
5 6 6 6 6 6 6 6 6 5 5 4 4 5 5 2 1 0 0 -1 -1 -1 -2 -1 -1 -1 -1 -1 -1 -1 -2 -2 -4 -5 -3 -3 -3 -3 -4 -5 -4 -8 -8 -9 -9 -8 -14
5 5 5 4 5 6 6 5 5 5 4 4 3 4 5 3 -1 -0 -1 -1 -2 -3 -3 -3 -2 -2 -1 -1 0 -0 0 -1 -3 -4 -5 -4 -6 -5 -6 -5 -4 -8 -8 -9 -10 -9 -12
4 5 5 5 4 5 5 4 5 4 3 3 3 3 4 3 -3 -1 -2 -1 -1 -2 -3 -3 -2 -2 -1 -2 -0 -1 -2 -3 -3 -4 -5 -6 -7 -6 -6 -6 -7 -10 -8 -9 -10 -10 -11
5 5 6 6 3 4 4 4 4 3 2 2 2 2 3 1 -4 -3 -2 -2 -2 -2 -4 -3 -3 -3 -3 -2 -2 -5 -6 -5 -5 -5 -5 -5 -6 -7 -7 -7 -8 -10 -9 -9 -11 -11 -12
5 5 5 4 4 4 4 4 3 3 -1 1 1 1 2 3 -5 -4 -3 -3 -2 -2 -2 -4 -3 -4 -3 -5 -6 -6 -5 -7 -8 -7 -8 -7 -7 -7 -7 -7 -10 -10 -10 -10 -11 -12 -12
Height
1552 1551 1551 1550 1550 1550 1549 1549 1548 1547 1546 1545 1544 1543 1542 1540 1539 1538 1536 1535 1533 1532 1530 1530 1530 1529 1530 1532 1533 1533 1533 1533 1532 1532 1532 1532 1532 1533 1536 1537 1539 1542 1545 1546 1547 1548 1552
1552 1552 1551 1551 1550 1550 1550 1549 1548 1547 1547 1546 1545 1543 1542 1541 1539 1538 1536 1534 1533 1531 1530 1529 1529 1530 1530 1533 1534 1534 1534 1533 1533 1533 1533 1533 1533 1534 1536 1539 1540 1542 1544 1546 1547 1548 1550
1552 1552 1551 1551 1550 1550 1549 1549 1548 1547 1546 1545 1544 1543 1542 1540 1539 1538 1536 1534 1532 1531 1530 1529 1529 1529 1531 1535 1534 1534 1534 1533 1532 1533 1533 1534 1535 1536 1537 1539 1542 1542 1543 1543 1545 1546 1550
1551 1551 1551 1550 1550 1550 1549 1549 1548 1547 1546 1545 1544 1542 1541 1540 1539 1537 1535 1533 1532 1531 1530 1529 1529 1530 1532 1535 1535 1535 1533 1533 1533 1533 1534 1535 1535 1536 1538 1541 1542 1545 1546 1549 1545 1546 1548
1549 1550 1550 1550 1549 1550 1549 1549 1548 1546 1545 1544 1543 1542 1541 1540 1538 1536 1535 1533 1532 1531 1530 1530 1530 1530 1534 1535 1535 1534 1533 1533 1533 1534 1534 1535 1535 1538 1540 1544 1549 1552 1551 1550 1547 1545 1546
1549 1549 1549 1549 1549 1549 1549 1548 1547 1546 1545 1544 1543 1541 1540 1538 1537 1535 1534 1533 1532 1531 1530 1530 1531 1533 1535 1535 1534 1533 1533 1533 1534 1534 1535 1536 1537 1541 1544 1547 1552 1549 1551 1551 1548 1546 1547
1548 1549 1549 1548 1548 1548 1548 1547 1546 1545 1544 1543 1542 1541 1539 1538 1536 1535 1534 1533 1535 1533 1531 1531 1533 1533 1534 1535 1534 1534 1533 1533 1533 1533 1537 1537 1541 1543 1542 1543 1545 1546 1547 1547 1545 1544 1547
1546 1547 1548 1548 1548 1548 1547 1546 1546 1544 1544 1543 1542 1541 1539 1537 1536 1535 1534 1533 1533 1535 1533 1533 1533 1534 1534 1534 1535 1534 1534 1535 1534 1538 1537 1541 1542 1539 1540 1542 1541 1545 1548 1549 1547 1545 1546
1545 1545 1545 1546 1547 1547 1546 1545 1544 1544 1543 1542 1541 1541 1539 1537 1536 1535 1534 1534 1533 1533 1533 1534 1534 1534 1535 1536 1535 1536 1536 1535 1536 1538 1540 1542 1542 1542 1541 1543 1544 1545 1548 1549 1548 1548 1552
1544 1545 1545 1545 1545 1545 1546 1545 1544 1543 1542 1541 1540 1539 1538 1537 1538 1535 1534 1534 1533 1533 1541 1537 1535 1535 1536 1535 1537 1537 1537 1539 1539 1541 1542 1543 1543 1543 1545 1546 1548 1547 1545 1545 1547 1551 1553
1543 1543 1543 1544 1543 1543 1544 1544 1543 1542 1541 1540 1540 1538 1537 1536 1536 1535 1536 1533 1533 1534 1565 1541 1537 1536 1536 1538 1540 1539 1538 1538 1541 1542 1544 1544 1545 1545 1546 1545 1545 1547 1545 1547 1549 1552 1556
1540 1541 1541 1542 1542 1541 1541 1541 1542 1541 1540 1538 1538 1537 1536 1536 1535 1534 1533 1533 1534 1546 1561 1538 1537 1537 1537 1537 1538 1538 1537 1537 1538 1540 1541 1542 1543 1543 1544 1544 1544 1546 1548 1555 1560 1561 1563
1537 1539 1540 1540 1540 1540 1540 1539 1538 1539 1538 1537 1536 1536 1535 1535 1535 1533 1533 1533 1546 1559 1541 1542 1540 1539 1540 1539 1539 1539 1540 1543 1541 1543 1544 1542 1542 1542 1542 1544 1545 1545 1550 1554 1556 1562 1544
1534 1535 1537 1537 1537 1537 1538 1538 1537 1537 1537 1536 1535 1534 1534 1534 1534 1533 1533 1535 1544 1539 1539 1540 1540 1539 1540 1541 1541 1540 1540 1542 1545 1544 1550 1550 1547 1543 1544 1544 1543 1546 1547 1549 1542 1549 1540
1529 1530 1532 1534 1534 1535 1535 1536 1536 1536 1535 1534 1534 1533 1533 1532 1532 1533 1535 1553 1543 1540 1539 1539 1540 1540 1540 1541 1541 1541 1543 1545 1546 1546 1543 1549 1543 1544 1543 1544 1545 1546 1548 1548 1546 1556 1563
1522 1525 1528 1530 1530 1531 1532 1533 1533 1533 1534 1533 1532 1532 1531 1531 1531 1532 1536 1539 1538 1538 1538 1539 1537 1539 1540 1541 1542 1543 1540 1546 1548 1548 1548 1549 1548 1546 1544 1545 1546 1544 1546 1550 1552 1552 1549
1518 1520 1522 1524 1526 1527 1528 1530 1531 1531 1531 1532 1531 1531 1530 1530 1531 1532 1541 1540 1536 1537 1537 1538 1538 1539 1541 1540 1544 1545 1543 1548 1547 1549 1549 1552 1553 1548 1547 1548 1545 1550 1549 1550 1550 1552 1544
1513 1514 1517 1519 1521 1523 1524 1526 1527 1528 1529 1530 1530 1531 1530 1531 1534 1535 1538 1535 1537 1537 1538 1538 1539 1541 1542 1542 1544 1547 1545 1548 1548 1548 1549 1551 1557 1556 1548 1555 1554 1554 1551 1550 1548 1551 1566
1509 1511 1513 1516 1517 1518 1520 1522 1524 1525 1526 1528 1528 1528 1528 1530 1534 1536 1535 1535 1535 1535 1535 1537 1538 1539 1540 1541 1543 1544 1544 1549 1549 1550 1551 1551 1555 1562 1546 1557 1556 1556 1557 1559 1565 1567 1564
1502 1506 1509 1510 1513 1514 1516 1519 1520 1522 1523 1526 1527 1528 1527 1527 1529 1531 1533 1532 1533 1534 1535 1535 1535 1537 1539 1540 1541 1541 1545 1547 1547 1548 1549 1549 1555 1549 1543 1547 1555 1557 1556 1557 1560 1570 1551
1498 1500 1503 1505 1508 1510 1512 1512 1515 1517 1521 1523 1524 1525 1524 1526 1526 1528 1529 1530 1531 1532 1534 1534 1535 1534 1536 1542 1542 1543 1546 1548 1548 1549 1550 1551 1554 1556 1553 1554 1555 1553 1552 1554 1555 1553 1557
1493 1496 1498 1499 1502 1504 1506 1508 1509 1513 1516 1520 1519 1521 1524 1525 1527 1528 1529 1530 1529 1530 1531 1532 1533 1532 1535 1538 1540 1543 1545 1546 1545 1550 1550 1552 1553 1557 1556 1554 1555 1553 1550 1550 1549 1549 1552
1487 1490 1492 1493 1495 1497 1501 1503 1505 1507 1510 1513 1514 1516 1519 1524 1528 1530 1528 1526 1527 1526 1532 1531 1530 1530 1533 1537 1539 1540 1542 1543 1544 1547 1551 1554 1557 1560 1557 1558 1556 1550 1554 1551 1552 1557 1558
1482 1483 1484 1486 1488 1492 1495 1498 1501 1503 1506 1507 1509 1511 1516 1520 1522 1523 1524 1526 1528 1529 1531 1532 1531 1530 1535 1537 1539 1540 1542 1544 1545 1547 1548 1553 1555 1557 1559 1558 1562 1557 1559 1559 1559 1561 1565
1477 1477 1478 1481 1484 1486 1489 1494 1497 1497 1500 1502 1505 1507 1509 1513 1515 1518 1521 1525 1530 1531 1533 1532 1532 1533 1532 1536 1541 1543 1546 1548 1550 1550 1549 1550 1554 1558 1561 1564 1552 1559 1559 1560 1561 1560 1564
1473 1473 1474 1476 1478 1480 1485 1489 1491 1493 1493 1497 1501 1504 1505 1506 1514 1514 1519 1523 1526 1530 1535 1535 1536 1534 1534 1534 1535 1539 1536 1539 1547 1550 1550 1551 1554 1558 1566 1564 1552 1559 1559 1559 1561 1564 1562
1468 1468 1468 1471 1474 1477 1481 1485 1486 1489 1489 1493 1497 1502 1504 1505 1513 1514 1517 1521 1521 1524 1531 1535 1535 1535 1534 1532 1534 1538 1540 1543 1544 1546 1551 1556 1558 1561 1560 1561 1555 1558 1559 1560 1571 1568 1560
1462 1461 1461 1465 1470 1473 1477 1480 1482 1484 1485 1489 1494 1499 1502 1504 1513 1513 1516 1518 1519 1521 1525 1529 1535 1534 1535 1535 1536 1544 1547 1545 1546 1547 1548 1551 1553 1559 1564 1563 1562 1556 1559 1562 1560 1558 1559
1457 1455 1457 1462 1467 1470 1475 1477 1479 1480 1484 1485 1492 1497 1501 1503 1512 1515 1515 1516 1518 1520 1523 1526 1527 1527 1528 1534 1540 1542 1543 1549 1552 1554 1552 1556 1553 1553 1554 1553 1554 1555 1556 1556 1556 1557 1557
Wind_Speed
2 3 5 6 7 7 7 6 6 6 6 6 6 7 8 9 10 11 11 11 10 9 8 7 5 1 2 3 4 2 2 2 2 1 2 2 4 3 4 4 4 4 2 3 2 2 18
2 3 4 6 7 7 7 6 7 6 7 7 8 9 9 10 11 11 11 11 10 9 8 6 4 1 1 3 2 3 3 3 3 2 3 3 4 5 6 4 3 2 2 3 3 4 8
3 3 4 5 6 6 6 6 6 5 6 7 7 8 9 11 11 12 11 11 10 8 6 5 2 2 4 5 3 3 2 3 4 3 4 5 4 2 4 4 3 3 3 3 5 3 6
3 3 3 3 4 5 5 5 5 5 5 6 7 8 9 10 11 12 12 10 7 6 5 4 3 3 5 5 5 3 3 3 4 4 4 5 5 5 3 5 4 4 4 3 2 3 3
4 2 2 2 3 4 4 5 4 4 5 6 7 8 8 10 11 11 10 9 6 4 4 4 3 3 4 5 3 4 4 3 3 3 4 4 4 4 3 4 3 6 2 2 3 1 3
4 3 2 2 2 3 4 5 5 5 6 6 7 8 8 9 10 10 10 8 4 3 2 2 4 4 3 1 3 4 3 1 2 3 4 2 3 3 3 3 4 4 3 2 3 1 5
3 4 3 3 3 3 4 4 4 5 6 6 7 8 9 10 10 9 9 5 3 2 6 6 5 4 3 2 5 4 3 3 3 3 3 3 4 2 3 4 2 4 3 4 3 1 4
3 3 3 4 4 4 4 5 6 6 6 7 8 9 10 10 9 8 7 3 3 1 4 5 5 5 4 2 1 4 3 2 3 3 1 5 2 3 4 3 4 3 2 4 4 1 1
5 5 4 4 5 5 5 5 6 6 7 7 8 10 10 10 8 9 8 6 3 2 2 2 3 3 2 2 3 6 5 2 4 2 2 4 3 1 2 2 2 3 4 3 4 3 3
4 5 5 4 5 6 7 7 6 6 7 8 8 9 10 11 4 9 6 6 4 3 4 2 1 2 1 2 3 5 5 3 4 2 2 1 1 2 1 3 4 2 3 2 2 2 4
3 3 5 6 6 5 7 8 8 8 8 8 9 9 9 8 6 6 6 6 5 3 4 1 2 1 2 3 1 3 5 3 2 2 2 1 2 1 1 3 4 3 3 2 1 1 2
5 4 4 5 6 6 6 6 8 8 8 8 8 8 8 7 6 6 6 5 4 6 4 1 1 2 1 2 2 2 2 3 3 3 2 3 1 1 2 2 2 3 3 5 4 2 2
8 7 5 5 5 7 8 7 6 7 8 8 8 7 7 6 4 5 5 3 5 4 2 3 2 3 2 2 2 4 3 5 1 2 3 2 2 0 1 2 2 2 3 3 3 0 6
15 11 9 7 6 5 8 8 8 7 8 7 7 7 6 5 4 3 3 5 2 2 3 1 1 1 1 3 0 2 2 2 1 2 3 3 4 2 2 2 4 4 4 4 6 4 3
20 17 14 10 9 8 7 8 8 8 7 7 7 7 7 4 3 1 1 4 6 4 1 3 0 1 2 1 1 2 1 2 2 1 4 4 4 0 2 1 1 3 3 1 2 1 1
22 19 17 15 13 10 9 9 7 6 7 6 6 7 6 4 2 4 4 4 3 2 2 2 5 2 3 2 1 0 2 2 3 0 1 1 3 0 1 2 4 2 3 3 1 4 5
22 21 19 16 14 12 11 10 9 7 6 6 5 3 2 2 5 3 3 6 3 3 3 3 3 3 5 3 4 2 2 1 1 2 2 2 1 1 1 1 3 1 1 2 1 3 3
15 18 16 17 15 13 12 11 9 7 6 5 2 1 2 5 0 2 3 3 1 2 1 1 0 2 4 2 3 3 3 1 1 4 3 1 3 3 3 1 2 2 1 2 3 4 1
18 17 15 15 19 14 12 10 10 7 5 3 3 3 4 7 2 2 1 1 1 3 3 2 2 2 1 3 3 4 2 1 0 1 3 4 1 3 3 2 2 1 1 3 3 2 5
15 18 21 18 19 13 14 14 10 10 8 8 3 0 2 7 3 4 4 3 4 3 2 3 4 3 3 4 2 2 3 1 1 2 3 3 2 5 8 3 2 3 3 3 4 3 5
19 19 17 18 21 20 17 13 12 12 12 10 6 3 4 2 4 4 4 5 4 5 4 6 2 5 5 4 2 4 2 0 1 1 2 2 4 2 3 3 3 4 6 6 8 6 6
19 19 20 19 21 22 19 17 12 13 15 16 7 5 4 2 1 5 3 5 7 2 5 3 3 2 4 4 3 4 5 4 4 1 3 1 2 2 2 4 2 6 9 9 9 9 6
17 20 21 19 19 21 24 19 16 15 18 13 14 10 5 4 3 3 4 3 5 9 1 2 4 5 4 2 2 4 3 3 3 5 5 3 3 2 3 3 5 8 2 1 2 1 2
13 18 20 20 18 19 23 21 18 15 18 21 13 13 9 3 4 4 3 2 1 2 4 2 4 4 6 8 9 7 6 7 6 6 3 5 4 2 3 3 2 1 1 2 1 2 1
13 15 18 19 18 17 19 22 23 17 19 20 18 12 10 3 4 4 7 5 7 4 3 3 2 6 13 6 3 2 2 1 3 4 2 2 3 1 2 2 6 1 1 2 3 3 3
14 15 17 17 19 19 21 25 20 23 16 18 19 18 7 9 4 7 5 7 4 3 2 1 5 9 6 2 2 3 4 2 3 2 4 4 4 3 2 2 4 3 2 2 4 4 4
16 15 18 20 22 27 28 22 22 21 20 17 15 17 9 6 5 8 4 4 6 5 3 3 5 4 5 2 2 3 3 1 3 4 4 2 1 4 4 3 5 3 3 3 5 5 2
18 17 16 19 21 30 25 19 23 21 18 17 15 18 14 7 8 6 5 5 6 6 4 9 4 1 2 2 2 2 2 3 2 2 3 5 5 3 2 2 6 5 3 4 2 2 6
17 12 5 9 20 25 11 14 20 19 21 20 15 17 15 7 10 10 7 6 4 7 5 10 1 3 5 3 1 2 2 1 1 2 1 2 2 3 4 3 3 5 3 4 3 6 9
Wind_Direction
50 42 31 30 26 22 19 13 16 21 20 16 12 13 9 4 0 352 352 346 340 336 332 325 321 297 131 104 90 41 355 348 339 344 20 56 62 89 120 117 91 69 47 58 70 49 87
358 11 17 16 18 15 10 6 10 11 7 3 6 4 4 357 356 352 351 347 345 350 342 339 328 313 144 103 52 26 18 11 13 38 54 69 89 94 94 62 74 114 77 8 34 72 116
311 337 4 7 11 9 8 3 6 5 1 359 3 359 357 357 352 349 348 349 351 356 358 10 21 100 95 90 56 25 19 41 55 75 88 89 90 82 109 109 96 102 108 115 53 128 129
265 314 337 3 4 3 359 358 2 360 356 353 357 360 357 352 350 347 348 349 356 3 11 44 60 87 84 84 58 45 41 47 56 73 94 89 102 101 67 114 42 60 53 99 347 132 119
227 257 295 335 349 346 347 349 354 350 353 353 354 354 353 348 347 346 347 342 350 0 23 24 48 114 88 88 68 47 53 70 89 87 86 107 122 87 92 84 33 6 170 187 307 130 130
242 239 253 280 317 335 342 343 341 343 346 351 349 347 345 344 345 345 344 340 348 7 356 67 65 99 87 22 25 9 1 43 104 114 103 102 67 72 47 80 224 182 160 238 229 181 82
252 287 282 289 304 317 326 328 332 334 334 338 340 337 339 342 344 345 345 337 324 301 39 71 56 85 67 92 47 34 48 94 106 99 78 34 76 180 222 183 144 135 154 203 242 192 120
225 257 280 287 295 304 315 324 328 329 330 334 336 335 336 341 344 351 354 351 13 73 70 67 74 82 78 56 79 35 45 104 87 105 111 31 149 196 124 145 136 146 171 246 292 317 121
245 228 244 267 285 297 302 310 322 327 327 330 334 334 337 340 347 359 11 32 29 30 92 54 71 71 59 46 64 14 26 61 82 93 51 141 173 153 158 170 163 215 194 209 234 22 60
268 277 266 259 279 294 304 312 318 323 325 325 331 337 339 343 353 356 8 10 10 356 72 316 348 39 33 88 55 33 26 38 37 134 140 214 7 170 144 251 136 266 192 147 152 92 240
286 304 296 290 288 293 308 313 317 321 324 325 328 337 340 347 350 3 352 356 355 359 17 327 0 355 44 71 98 14 18 37 88 79 73 12 140 124 204 239 173 254 54 43 353 158 2
268 294 312 308 296 288 290 302 309 314 318 321 327 333 336 343 349 358 355 352 343 44 265 333 356 358 48 51 64 353 60 78 110 120 79 214 241 167 225 60 52 124 86 47 52 85 262
245 262 275 297 313 306 296 295 300 307 312 317 322 327 329 335 341 355 357 348 34 122 2 6 348 15 14 359 54 41 28 18 146 66 350 309 177 99 112 135 19 93 76 307 322 284 237
244 246 261 273 287 305 309 307 308 312 312 312 319 319 320 319 326 358 12 49 119 257 199 199 32 70 261 346 46 18 125 156 184 119 142 160 299 163 359 173 180 182 165 180 269 234 271
243 241 247 257 270 285 298 307 312 312 309 312 317 310 305 303 299 317 153 68 213 190 180 165 67 105 278 284 265 9 264 214 161 192 175 154 267 75 67 359 110 169 191 111 292 149 331
253 242 239 248 252 262 275 292 298 300 301 302 308 302 284 280 233 158 85 226 210 196 162 153 208 190 241 233 230 301 198 139 145 341 353 200 305 265 258 136 38 194 140 90 53 284 270
264 258 253 258 256 249 260 271 282 288 294 293 305 283 244 181 150 150 167 223 209 210 189 170 210 237 219 220 200 233 246 65 92 120 78 131 119 264 339 226 171 103 209 55 348 165 250
267 261 264 264 259 262 261 264 269 277 280 279 256 323 238 181 139 50 163 196 180 177 205 268 43 231 200 177 210 244 239 28 156 161 148 181 142 259 251 24 357 34 142 181 187 206 146
256 253 257 267 265 268 273 269 261 249 240 209 226 247 213 192 194 232 211 198 204 168 182 157 186 171 96 205 228 195 203 46 149 155 164 187 209 344 304 39 10 238 207 103 86 64 199
258 259 250 256 261 262 260 276 269 246 217 195 203 258 193 185 182 148 158 220 201 194 188 161 147 136 151 208 175 226 195 113 131 147 116 154 174 207 248 224 133 208 206 197 157 163 251
245 255 251 264 263 259 255 252 263 247 202 184 185 231 191 206 236 175 185 161 176 200 206 191 160 210 174 202 201 218 129 130 20 72 71 123 218 207 272 247 227 238 238 212 210 216 238
241 241 251 252 259 258 253 252 244 218 208 203 185 167 160 131 144 149 188 220 207 199 153 215 201 131 175 199 213 197 148 190 201 121 139 18 239 98 281 344 358 270 239 234 248 258 258
249 246 247 251 250 258 253 252 239 226 211 204 199 174 159 149 150 125 226 207 215 146 147 129 166 129 158 175 156 124 131 97 148 159 172 145 139 65 265 337 315 274 229 170 105 77 146
274 254 250 247 248 254 260 253 242 227 226 218 212 192 159 219 178 196 150 134 148 220 145 156 144 135 149 133 119 103 77 75 100 68 119 142 136 163 280 330 268 9 70 82 352 253 214
290 272 256 243 251 256 267 255 234 232 234 220 211 190 176 154 153 144 142 126 117 104 66 111 96 138 144 137 75 50 23 108 59 41 45 40 129 191 273 247 327 116 293 160 116 283 199
299 285 257 246 250 265 271 247 238 232 225 212 206 201 183 137 183 130 138 168 153 113 73 76 129 148 150 119 134 197 227 186 186 118 53 95 78 135 142 214 262 216 152 143 139 279 182
297 285 265 252 240 256 262 249 235 230 211 199 204 206 200 140 154 154 154 175 156 124 108 155 179 165 178 129 165 191 217 193 212 180 164 105 60 197 215 240 283 196 141 143 86 253 246
298 289 265 250 223 241 247 239 236 225 200 187 196 202 203 150 131 163 159 152 154 166 154 157 123 202 86 163 174 195 145 209 148 151 174 180 166 198 112 203 270 159 136 174 188 295 307
307 296 207 196 226 237 251 256 245 229 189 183 188 199 195 160 118 117 125 156 168 160 153 171 136 136 148 94 134 114 143 106 104 270 349 242 195 177 191 216 155 171 236 236 278 311 316